Miscellaneous Local Product
Issued by NWS North Platte, NE

Home | Current Version | Previous Version | Text Only | Print | Product List | Glossary On
Versions: 1 2 3 4 5 6 7 8 9 10 11 12 13 14 15 16 17 18 19 20 21 22 23 24 25 26 27 28 29 30 31 32 33 34 35 36 37 38 39 40 41 42 43 44 45 46 47 48 49 50
000
AXUS43 KLBF 061510
MISLBF


WESTERN AND NORTH CENTRAL NEBRASKA HOURLY WEATHER ROUNDUP
NATIONAL WEATHER SERVICE NORTH PLATTE NE
900 AM CST TUE DEC 06 2016

NOTE: "FAIR" INDICATES FEW OR NO CLOUDS BELOW 12,000 FEET WITH NO
SIGNIFICANT WEATHER AND/OR OBSTRUCTIONS TO VISIBILITY.

NOTE: STATIONS NOT REPORTING VARIABLES SUCH AS SKY/WEATHER OR
PRESSURE ARE PROVIDED BY RAWS AND APRS NETWORKS AND ARE NOT UNDER
NATIONAL WEATHER SERVICE QUALITY CONTROL.

...OBSERVATIONS IN AND NEAR THE EASTERN PANHANDLE OF NEBRASKA...

CITY           SKY/WX    TMP DP  RH WIND       PRES   REMARKS
PINE RIDGE     CLEAR      8   2  76 W8        29.98R WCI  -4
CHADRON        CLEAR     12   3  67 W16       30.02R WCI  -5
ALLIANCE       CLEAR      1  -4  79 W5        29.98R WCI  -9
SIDNEY         CLEAR     10   1  67 W14       29.97R WCI  -6
CRESCENT LAKE    N/A     11   5  76 NW8         N/A  WCI  -1
$$

...OBSERVATIONS IN NORTHERN NEBRASKA AND FAR SOUTHERN SOUTH DAKOTA...

CITY           SKY/WX    TMP DP  RH WIND       PRES   REMARKS
WINNER         FAIR      16   6  65 W22G29    29.97R WCI  -2
VALENTINE      CLEAR     12   3  67 W10       29.99R WCI  -1
THEDFORD       CLEAR     19  10  69 NW9       29.99R WCI   7
AINSWORTH      CLEAR     14   7  72 NW14      29.98R WCI  -1
O`NEILL        CLEAR     20   6  56 W24G31    29.97R WCI   2
ORD            CLEAR     18  10  71 W7        30.00R WCI   9
BROKEN BOW     CLEAR     20   9  62 W14       29.99R WCI   7
VALENTINE NWR    N/A     11   5  76 NW9         N/A  WCI  -2
BUTTE            N/A     14   6  70 W25G32      N/A  WCI  -5
HALSEY           N/A     17   5  60 W9          N/A  WCI   6
CHAMBERS         N/A     19   4  53 N6          N/A  WCI  11
EWING            N/A     20   8  60 W17G24      N/A  WCI   5
$$

...OBSERVATIONS IN SOUTHWEST NEBRASKA AND FAR NORTHEAST COLORADO...

CITY           SKY/WX    TMP DP  RH WIND       PRES   REMARKS
WRAY           PTSUNNY   18   9  68 W10       30.03S WCI   6
HOLYOKE        FAIR      18   9  68 W12       30.02R WCI   5
IMPERIAL       CLEAR     13   3  64 W12       30.04R WCI  -1
OGALLALA       CLEAR     11   5  75 W10       30.02S WCI  -2
NORTH PLATTE   CLEAR     17   9  70 W9        30.02R WCI   6
MCCOOK         PTCLDY    19   8  62 W12       30.07R WCI   7
LEXINGTON      SUNNY     19  11  70 NW6       30.04R WCI  11
STAPLETON        N/A     15   8  75 CALM        N/A
GOTHENBURG       N/A     20   9  62 W6          N/A  WCI  12
CALLAWAY         N/A     18  11  75 NW7         N/A  WCI   9
$$

...OBSERVATIONS IN CENTRAL LINCOLN COUNTY AREA...

CITY           SKY/WX    TMP DP  RH WIND       PRES   REMARKS
N.P. AIRPORT   CLEAR     17   9  70 W9        30.02R WCI   6
N.P. DOWNTOWN    N/A     16   8  70 W3          N/A
N.P. SOUTHEAST   N/A     16   8  69 W3          N/A
N.P. HILLCREST   N/A     13   8  81 NW7         N/A  WCI   3
$$

...SOME OBSERVATIONS FROM AROUND THE REGION...

CITY           SKY/WX    TMP DP  RH WIND       PRES   REMARKS
LARAMIE        CLOUDY    -4 -14  62 SE10      29.83S WCI -21
CHEYENNE       CLEAR     11 -15  30 W15       29.87S WCI  -5
DENVER         PTCLDY    12   0  58 S8        29.92S WCI   0
AKRON          CLOUDY    13   4  67 W8        29.97S WCI   2
SCOTTSBLUFF    CLEAR      9   2  73 NW7       29.99R WCI  -2
RAPID CITY     CLEAR     10   1  67 N16       29.95S WCI  -7
BISMARCK       SNOW       9   6  88 NW25G38   29.83R VSB 1/2 WCI -12
PIERRE         MOCLDY    12   5  73 NW36G45   29.94R HAZE    WCI -11
SIOUX FALLS    FLURRIES  17  11  77 W20G32    29.86R WCI   1
OMAHA          SUNNY     24  11  57 NW9       30.01S WCI  14
GRAND ISLAND   SUNNY     21  14  74 W10       30.04R WCI  10
KANSAS CITY    MOSUNNY   32  16  51 NW16G30   30.00R WCI  21
WICHITA        MOSUNNY   32  20  61 N14       30.08R WCI  22
OKLAHOMA CITY  CLOUDY    36  24  62 N25G32    30.04R WCI  24
DALLAS         CLOUDY    49  46  90 NE13      29.93R
AMARILLO       CLOUDY    26  14  60 N15       30.09R WCI  14
DODGE CITY     CLOUDY    21  12  68 NW15      30.09R WCI   8
HAYS           SUNNY     25  13  60 NW10      30.10R WCI  15
GOODLAND       CLEAR     13   4  67 W8        30.05R WCI   2
$$




USA.gov is the U.S. government's official web portal to all federal, state and local government web resources and services.